Location: *
(40.4000°N, 15.1200°E)
Time: 18:24:33
(UTC+00:00)

Abrixas rocket - Pass Details

Date: 09 April 2020
Orbit: 344 x 351 km, 48.4° (Epoch: 06 June)

Event Time Altitude Azimuth Distance (km) Brightness Sun altitude
Rises 18:22:08 0° 303° (WNW) 2,164 7.7 -9.9°
Reaches altitude 10° 18:24:24 10° 319° (NW) 1,323 5.8 -10.3°
Maximum altitude 18:26:52 23° 15° (NNE) 813 3.8 -10.7°
Enters shadow 18:29:01 12° 67° (ENE) 1,228 4.2 -11.1°
